RH
99 99 99 99 99 99 99 99 99 98 98 97 95 93 94 95 96 96 96 96 95 93 90 89 88 88 88 90 95 99 100 100 99 99 98 98 97 97 97 97 96 94 91 88 85 83 82 81 82 84 85 88 92 96 99 99 99 100 100 100 100 100 100 100 99 98 97 96 96 97 96 94 92 90 88 86 84 81 79 76 71 66 60 62 67 73
99 99 99 99 99 99 99 99 99 98 97 96 96 96 97 98 99 99 99 98 97 96 93 91 90 90 90 93 97 100 100 100 99 99 98 97 96 96 96 97 96 94 91 88 86 84 82 81 81 82 83 84 87 91 95 98 99 99 100 100 100 100 100 100 99 99 98 98 98 99 97 94 91 89 88 86 84 81 78 73 67 61 58 62 68 73
100 99 99 99 99 99 99 99 99 98 96 96 97 98 99 99 100 100 100 100 99 98 96 93 92 92 93 96 99 100 100 100 99 99 98 97 96 96 96 96 96 94 91 88 86 83 81 80 80 80 81 82 83 85 89 94 97 98 99 99 100 100 100 100 99 99 99 99 99 99 97 93 90 89 87 85 83 79 75 71 64 58 54 60 68 74
100 100 100 99 99 99 99 99 100 99 98 98 98 99 99 100 100 100 100 100 100 99 99 96 94 94 96 98 99 100 100 100 100 99 98 97 96 96 96 96 95 94 91 88 85 82 79 78 77 77 78 80 81 83 85 89 93 96 98 98 99 99 100 100 100 100 100 100 99 98 96 93 90 88 86 83 80 76 72 67 60 53 49 57 67 74
100 100 100 99 99 99 99 100 100 100 100 99 99 100 100 100 100 100 100 100 100 100 100 99 98 97 98 99 100 100 100 100 100 99 98 98 97 97 97 96 95 93 91 87 84 80 77 75 74 73 74 77 80 82 83 86 89 93 95 97 98 98 99 99 99 99 99 99 98 97 95 93 90 87 84 81 77 73 69 63 55 48 44 54 65 73
100 100 100 99 99 99 99 100 100 100 99 100 100 100 100 100 100 100 100 100 100 100 100 100 100 99 100 100 100 100 100 100 100 100 99 98 98 97 97 96 94 93 90 87 84 81 77 74 70 68 68 71 75 79 82 84 87 90 93 95 97 98 98 99 99 99 98 98 97 95 94 91 89 86 82 78 75 71 67 59 50 42 40 52 63 72
99 99 99 99 99 99 99 99 100 100 100 100 100 100 100 100 100 100 100 100 100 100 100 100 100 100 100 100 100 100 100 100 100 100 99 99 98 98 97 96 94 92 90 88 86 83 80 75 70 65 62 63 67 71 77 81 85 88 91 94 96 97 98 98 98 98 98 97 96 94 92 89 87 84 80 77 73 70 67 58 46 37 37 51 63 73
99 99 99 99 99 99 99 99 99 100 100 100 100 100 100 100 100 100 100 100 100 100 100 100 100 100 100 100 100 100 100 100 100 100 100 99 99 98 97 96 94 92 91 90 88 86 83 78 72 65 59 56 57 60 65 72 79 85 90 92 95 97 98 98 98 98 97 96 94 92 90 87 85 82 79 76 73 70 68 58 46 38 40 52 64 74
99 99 99 99 99 99 99 99 99 100 100 100 100 100 100 100 100 100 100 100 100 100 100 100 100 100 100 100 100 100 100 100 100 100 100 99 99 98 97 96 94 93 92 90 89 87 85 79 73 65 57 52 50 49 51 57 64 73 83 88 92 95 97 97 97 97 96 94 93 91 89 86 84 82 79 76 74 71 68 60 50 45 52 59 67 74
99 99 99 99 99 99 99 99 99 99 100 100 100 100 100 100 100 100 100 100 100 100 100 100 100 100 100 100 100 100 100 100 100 100 99 99 98 98 97 95 94 93 92 90 89 88 85 79 71 62 54 49 45 43 41 42 46 53 63 75 84 90 94 95 96 96 95 93 92 90 88 86 85 83 81 78 76 73 70 63 51 47 62 67 71 74
99 99 99 99 99 99 99 99 99 99 100 100 100 100 100 100 100 100 100 100 100 100 100 100 100 100 100 100 100 100 100 100 100 100 100 99 99 98 97 96 94 93 92 90 89 88 86 77 68 58 51 45 41 37 34 32 31 33 39 51 64 76 84 89 92 94 94 93 92 90 89 87 86 85 83 81 79 76 73 64 51 47 64 71 75 76
99 99 99 99 99 99 99 99 99 99 100 100 100 100 100 100 100 100 100 100 100 100 100 100 100 100 100 100 100 100 100 100 100 100 100 100 99 99 98 96 95 93 91 89 89 87 85 76 66 56 49 43 38 34 30 25 21 19 20 28 40 53 67 76 82 86 89 91 91 90 89 88 86 86 84 82 80 77 72 62 52 50 65 74 77 78
99 99 99 99 99 99 99 99 99 99 100 99 99 99 100 100 100 100 100 100 100 100 100 100 100 100 100 100 100 100 100 100 100 100 100 100 99 99 98 96 94 93 91 89 89 87 85 77 67 58 51 45 40 35 30 24 18 13 12 16 24 35 49 61 70 76 81 83 86 87 88 86 85 84 83 81 77 72 65 55 52 57 72 78 82 83
99 99 99 99 99 99 99 99 99 99 99 99 99 99 99 99 100 100 100 100 100 100 100 100 100 100 100 100 100 100 100 100 100 100 100 100 99 99 98 96 94 93 91 89 88 87 86 78 70 62 56 52 46 41 34 27 19 13 11 14 20 28 38 49 58 65 71 74 78 82 84 84 83 81 79 77 72 65 55 49 54 66 81 86 88 88
99 99 99 99 99 99 99 100 99 99 99 99 99 99 100 100 100 100 100 100 100 100 100 100 100 100 100 100 100 100 100 100 100 100 100 100 99 99 98 96 94 93 91 89 88 87 86 80 74 68 63 60 55 48 40 30 22 15 12 17 22 29 36 44 50 55 61 66 72 76 79 80 79 77 75 71 64 55 45 47 59 75 88 92 92 89
99 99 98 98 99 99 99 99 99 99 99 99 100 100 100 100 100 100 100 100 100 100 100 100 100 100 100 100 100 100 100 100 100 100 100 100 100 99 98 97 95 93 91 90 89 88 86 82 77 73 71 68 63 55 45 34 25 19 16 21 26 32 39 43 46 50 54 60 67 72 76 75 74 73 71 64 56 47 40 49 65 82 92 95 96 94
99 99 98 98 98 99 99 100 100 100 100 100 100 100 99 100 100 100 100 100 100 100 100 99 98 98 99 100 100 100 100 100 100 100 100 100 100 99 99 97 95 94 92 91 90 89 87 83 80 79 78 75 69 60 50 37 28 22 20 24 30 36 41 45 48 50 54 61 67 72 73 73 73 71 68 60 52 45 43 56 72 87 94 96 98 99
99 98 98 98 98 98 99 100 100 100 100 100 100 100 99 99 99 100 100 100 100 100 99 98 96 94 94 98 100 100 100 100 100 100 100 100 99 99 99 97 96 94 93 91 91 90 89 86 84 84 84 80 74 65 54 41 32 27 25 28 32 37 43 48 51 55 61 67 73 77 78 77 76 74 71 64 57 52 53 66 79 90 95 97 99 100
98 98 97 97 97 98 99 100 100 100 100 100 100 100 100 100 100 100 100 100 100 99 99 97 95 94 92 94 97 99 100 100 100 100 100 100 99 99 99 98 96 95 93 92 91 91 90 87 87 87 87 84 77 69 57 44 37 33 33 34 36 39 43 49 54 61 69 75 81 84 84 83 82 79 77 70 66 63 65 75 84 91 95 97 99 100
98 98 98 97 98 99 99 99 99 99 99 99 100 100 100 100 100 100 100 100 99 99 99 97 95 94 93 95 97 99 99 100 100 99 99 99 99 99 99 98 96 95 94 93 92 92 91 89 89 89 89 86 80 71 59 48 43 42 44 44 44 44 44 50 58 66 74 82 87 88 89 88 87 84 80 75 72 71 74 80 87 92 95 97 99 99
98 99 99 98 99 99 99 99 99 99 99 99 99 100 100 100 100 100 100 100 100 99 99 98 96 95 95 96 97 98 99 99 99 99 99 99 99 99 99 97 96 95 94 93 93 93 92 91 91 91 91 87 80 71 59 51 49 52 56 55 53 51 48 54 62 71 80 87 91 91 92 92 90 87 83 78 75 76 78 83 88 92 95 97 99 99
97 98 99 99 99 99 98 98 98 98 98 99 99 99 100 100 100 100 100 100 100 100 99 97 96 96 96 96 96 98 98 99 98 98 98 99 99 99 99 97 96 95 94 94 94 93 93 92 92 92 93 88 81 70 58 60 62 63 65 65 62 58 54 59 67 75 85 90 93 93 93 93 93 90 86 80 77 77 79 83 88 92 95 97 98 99
97 97 97 98 99 98 98 97 98 98 98 98 99 99 99 99 99 99 99 99 99 99 98 99 99 98 98 97 97 97 99 99 98 98 98 97 98 98 99 97 96 95 95 94 94 94 93 93 92 93 93 88 80 71 63 61 64 69 74 73 70 66 61 64 71 80 88 92 94 94 94 94 94 93 89 83 79 79 80 83 86 90 94 96 97 98
97 97 97 98 98 98 98 97 96 97 98 98 98 98 98 99 99 99 99 99 99 99 99 99 99 99 99 99 99 99 100 100 99 98 98 97 97 97 98 97 96 96 95 94 94 94 94 93 93 93 93 88 81 75 71 67 70 76 81 81 80 76 66 69 76 83 91 94 94 95 95 95 96 95 93 86 82 79 80 82 85 88 92 95 96 97
98 98 98 98 98 98 97 96 95 95 96 97 98 99 99 99 99 99 100 100 100 100 100 100 100 100 100 100 100 100 100 100 99 99 98 98 98 97 97 97 96 95 95 95 95 95 94 94 94 93 93 88 84 80 75 74 78 84 87 86 85 81 73 76 81 87 93 94 95 95 95 95 96 96 96 90 85 80 79 80 82 86 89 93 94 96
99 99 98 98 98 98 97 96 94 93 93 94 96 99 100 100 100 100 100 100 100 100 100 100 100 100 100 100 100 100 100 100 100 99 98 99 98 97 96 96 96 95 96 95 95 95 95 94 94 94 92 90 86 82 80 82 86 91 93 91 89 86 80 80 85 92 95 95 95 94 94 94 95 96 96 94 89 85 80 78 79 81 85 89 92 94
99 99 98 98 97 97 96 95 94 93 92 92 94 97 99 100 100 100 100 100 100 100 100 98 98 99 100 100 100 100 100 100 100 99 99 98 98 97 96 96 95 95 96 95 95 95 95 95 94 94 92 91 86 81 80 85 90 94 94 94 93 90 84 84 90 96 96 95 95 95 95 95 95 96 96 96 93 90 85 80 78 78 81 85 87 90
99 98 97 96 96 96 96 95 94 94 93 93 94 97 99 100 100 100 100 100 100 100 99 97 97 97 98 99 99 100 100 100 100 100 99 98 98 97 96 95 95 95 97 96 96 95 95 95 95 94 93 91 86 80 74 82 90 93 91 94 95 93 86 89 94 98 97 96 95 95 95 95 96 96 96 96 95 94 91 86 82 78 77 78 80 83
99 98 96 95 95 96 96 96 95 95 95 94 95 97 99 99 99 99 100 99 99 99 99 97 96 96 97 98 99 100 100 100 100 100 100 99 98 98 96 95 94 95 97 97 96 96 95 95 95 95 94 89 84 78 70 80 88 93 91 95 96 93 88 93 96 98 98 97 96 95 95 95 96 96 96 96 96 96 95 93 86 79 72 72 72 74
99 99 98 97 98 98 98 98 98 98 97 97 97 97 99 98 98 99 99 99 99 99 98 97 97 97 97 98 98 98 98 99 100 100 100 99 99 98 97 95 95 96 97 96 96 95 94 95 95 95 94 87 81 75 69 77 86 94 96 97 96 93 91 95 98 98 98 97 95 95 96 96 97 97 97 96 97 97 97 95 88 79 72 70 69 69
100 99 99 99 99 99 99 99 99 99 99 99 99 99 99 99 99 99 99 98 98 98 98 98 98 98 97 96 95 94 95 98 100 100 100 99 99 98 97 96 96 96 96 95 94 92 90 93 94 94 93 85 77 70 67 73 83 92 96 97 97 96 96 97 98 98 98 97 96 96 97 98 98 98 98 97 97 98 99 96 89 80 73 71 71 70
100 100 100 100 100 100 100 100 100 100 100 100 100 100 100 100 100 99 99 98 97 98 98 98 98 97 96 94 92 91 92 96 98 99 100 100 99 98 97 97 97 97 96 94 92 90 88 90 92 92 90 82 73 65 63 69 81 92 96 96 97 97 97 98 98 98 98 98 98 98 98 98 98 99 98 98 98 98 99 96 89 81 74 73 72 72
100 100 100 100 100 100 100 100 100 100 100 100 100 100 100 100 100 99 99 97 97 96 97 98 98 97 96 94 92 91 91 92 94 97 100 100 99 98 97 97 97 97 97 95 92 89 86 86 87 88 86 78 69 61 59 67 79 91 96 97 97 97 97 97 97 98 98 98 98 98 98 98 98 98 98 98 98 99 99 96 90 82 77 73 72 71
100 100 100 100 100 100 100 100 100 100 100 100 100 100 100 100 100 100 99 98 97 96 96 96 96 97 97 96 94 93 92 91 92 95 100 99 98 97 97 97 97 97 96 95 92 88 83 82 82 82 80 74 65 57 56 67 80 91 96 96 96 97 98 97 97 97 97 97 98 98 98 98 98 98 98 98 98 98 98 97 91 83 78 73 70 69
100 100 100 100 100 100 100 100 100 100 100 100 100 100 100 100 100 100 100 99 99 98 96 95 94 93 94 94 95 94 93 91 91 94 99 99 98 96 96 96 97 96 96 95 91 86 80 78 77 77 78 74 66 59 56 68 80 91 96 96 96 97 97 97 97 97 97 97 98 98 98 98 98 98 98 98 98 98 98 98 93 86 78 73 69 67
100 100 100 100 100 100 100 100 100 100 100 100 100 100 100 100 100 100 100 100 100 99 98 97 95 93 92 92 92 92 91 89 91 94 98 99 98 96 95 96 96 96 95 94 91 87 81 78 77 77 78 78 74 68 61 70 83 93 96 96 96 97 97 97 97 97 97 97 98 98 98 98 98 97 98 98 98 98 98 98 96 91 82 75 70 68
100 100 100 100 100 100 100 100 100 100 100 100 100 100 100 100 100 100 100 100 100 100 99 99 97 96 94 93 91 90 89 89 90 92 95 98 98 97 95 96 96 96 95 94 92 89 85 83 83 83 82 80 77 74 70 75 86 96 97 97 97 97 97 96 97 97 97 97 97 97 97 97 97 97 97 97 98 98 98 98 97 96 91 81 74 71
100 100 100 100 100 100 100 100 100 100 100 100 100 100 100 100 100 100 100 100 100 100 100 100 99 98 97 96 95 93 92 91 91 92 93 96 97 97 96 96 96 95 94 93 92 90 87 87 87 87 86 82 79 77 74 81 90 96 96 97 97 97 96 97 97 97 97 97 97 97 97 97 97 97 97 97 97 97 98 98 98 98 97 93 87 80
100 100 100 100 100 100 100 100 100 100 100 100 100 100 100 100 100 100 100 100 100 100 100 100 100 99 99 98 97 97 96 95 94 93 93 95 96 97 97 95 95 95 94 93 92 90 88 87 86 86 86 84 83 82 80 86 92 96 96 96 96 96 96 97 97 97 97 97 97 97 96 95 93 92 91 91 91 92 96 97 98 98 98 97 96 94
100 100 100 100 100 100 100 100 99 99 99 100 100 100 100 100 100 100 100 100 100 100 100 100 100 100 100 99 99 99 98 98 97 96 95 95 96 97 97 95 94 94 94 93 92 90 88 87 85 83 80 80 81 85 90 91 93 95 96 96 96 96 95 96 97 97 97 97 96 95 93 88 84 80 78 77 77 80 85 90 93 94 95 95 96 97
99 99 100 100 100 100 100 100 99 99 99 100 100 100 100 100 100 100 100 100 100 100 100 100 100 100 100 99 99 99 99 99 98 98 97 97 97 98 98 96 95 94 93 93 92 90 88 86 85 82 77 76 77 82 88 91 93 94 96 96 96 96 96 97 97 97 97 97 96 93 88 80 74 69 66 64 63 64 67 76 82 86 89 91 94 95
99 99 100 100 100 100 100 100 100 100 100 100 100 100 100 100 100 100 100 100 100 100 100 100 100 99 99 99 99 99 99 99 99 98 98 98 98 99 99 98 96 95 94 93 92 90 88 86 84 81 76 73 76 81 88 90 92 93 95 95 95 96 96 96 97 97 97 97 96 94 88 78 70 64 62 60 58 57 56 63 70 77 82 85 88 90
99 99 100 100 100 100 99 100 100 100 99 100 100 100 100 99 99 99 99 100 100 100 100 100 100 100 100 100 99 99 99 99 99 99 98 99 99 99 99 99 98 96 94 93 92 89 87 84 82 79 75 70 70 75 85 90 93 94 96 95 95 96 96 96 96 96 97 97 97 95 92 83 74 66 62 62 60 57 54 56 61 67 74 77 81 84
99 100 100 100 100 100 100 100 100 100 100 100 100 100 100 100 99 99 99 99 99 100 100 100 100 100 99 99 99 99 99 99 99 99 99 99 99 99 99 99 98 97 96 94 91 89 85 82 79 77 75 69 67 68 74 83 89 94 96 96 95 95 94 93 95 97 96 97 97 96 94 86 78 71 66 66 64 60 55 54 55 60 65 69 73 77
99 99 99 99 99 99 99 99 99 99 99 99 100 100 100 100 100 100 99 99 99 100 100 100 99 99 98 98 98 98 99 99 99 99 99 98 98 98 98 98 98 97 96 94 92 89 85 81 77 74 71 68 64 63 67 73 81 89 95 96 95 91 83 82 86 92 95 95 96 95 92 86 81 75 71 69 65 61 56 54 54 55 59 62 65 68
99 99 98 99 99 99 99 99 99 99 99 99 99 99 100 100 100 100 99 99 99 99 99 99 99 98 97 97 97 97 98 98 98 98 98 98 97 97 97 96 96 96 96 95 93 90 87 83 78 73 68 67 65 62 60 61 69 79 89 93 94 92 87 81 81 85 89 90 91 90 88 85 81 77 72 69 66 61 55 53 53 53 55 57 58 60
98 98 98 98 98 98 98 98 98 98 98 98 98 99 99 99 99 99 99 99 99 99 99 99 98 97 97 97 97 97 97 96 96 96 96 97 96 96 96 94 93 92 92 92 91 90 88 85 81 75 69 68 67 65 62 59 61 67 77 84 90 92 90 83 78 76 77 79 80 81 82 81 80 77 73 70 67 62 55 52 51 51 52 53 54 54
98 98 98 98 97 97 97 97 97 97 97 97 97 98 98 99 99 99 99 99 99 98 98 98 97 97 97 96 96 96 96 95 95 94 94 94 94 93 92 89 87 86 86 87 87 86 85 82 79 74 70 68 66 65 64 61 60 61 64 73 83 89 87 81 75 70 71 71 71 71 73 74 74 73 71 70 67 62 55 50 48 48 49 50 50 50
98 98 97 97 97 97 97 97 97 97 97 96 97 97 97 98 98 98 98 98 98 98 97 97 97 97 96 96 96 96 95 94 93 91 90 90 90 88 85 82 80 80 79 80 81 80 79 77 75 72 70 68 65 61 59 59 59 60 61 66 74 80 81 78 74 69 66 66 66 66 67 68 67 66 65 67 64 59 52 47 45 44 44 45 46 46
98 98 97 97 97 97 96 96 96 96 96 96 96 96 96 97 97 97 97 98 97 97 97 96 96 96 96 96 96 96 95 94 92 90 88 87 86 84 81 79 77 77 78 78 77 76 75 74 73 72 70 69 66 61 56 54 56 60 64 67 70 72 75 75 73 70 63 61 61 63 66 67 66 65 63 63 60 55 49 44 42 40 40 41 42 43
97 97 97 97 97 97 96 96 96 96 96 96 96 96 96 96 96 96 97 97 97 97 96 96 96 95 95 95 95 95 94 93 92 90 87 85 84 82 80 78 78 78 78 78 77 76 75 76 76 75 71 69 67 64 57 52 53 60 69 70 70 69 70 70 70 68 63 58 57 59 64 68 69 67 65 62 59 55 50 44 39 36 36 38 39 41
Wind_Speed
32 33 34 35 35 35 34 35 35 34 32 31 31 31 30 29 28 27 26 26 26 26 27 27 26 26 25 24 24 24 24 23 22 21 19 17 15 14 13 12 12 10 9 8 7 7 8 8 9 10 11 11 12 11 11 10 9 8 7 8 9 10 11 11 11 11 9 8 8 8 9 9 8 7 7 6 6 5 5 4 4 4 4 4 4 3
30 32 33 35 36 35 34 36 36 35 33 33 33 33 32 30 29 28 26 26 25 26 27 27 26 26 25 25 25 25 24 23 22 20 18 17 15 14 14 13 12 10 9 8 8 8 8 9 9 10 11 12 13 13 13 13 12 11 11 10 10 11 10 10 9 9 8 8 8 8 8 8 7 7 6 6 5 5 5 4 4 4 5 5 5 4
29 30 32 35 35 35 34 36 36 35 34 35 35 35 33 32 30 28 27 25 25 25 26 26 26 26 26 25 25 25 25 23 22 20 19 17 16 15 15 14 12 11 9 8 8 8 9 9 10 11 12 12 13 13 13 14 14 14 14 14 13 13 12 11 10 9 9 10 10 10 9 8 8 7 6 6 5 5 5 5 4 5 5 6 5 4
29 29 32 34 33 32 32 35 36 35 34 36 36 35 33 32 30 28 27 26 25 24 25 25 26 26 26 26 26 26 25 24 22 21 20 18 17 16 16 14 12 11 9 9 8 8 9 9 10 11 12 12 13 13 13 13 13 14 14 15 15 15 14 13 13 12 12 12 12 11 10 9 8 7 6 6 6 5 5 5 4 5 6 7 6 4
27 28 31 32 29 27 28 33 35 35 35 35 35 34 32 30 29 28 27 26 25 25 24 25 25 26 26 27 27 26 25 24 23 22 21 20 19 17 16 14 12 11 10 9 9 8 9 9 10 10 11 12 13 13 13 13 13 13 14 14 15 15 15 15 15 15 14 14 13 12 10 9 8 8 7 6 6 5 5 4 4 5 6 7 6 4
23 26 29 28 24 22 25 30 34 35 34 34 33 31 29 29 28 27 27 26 26 25 25 25 25 26 26 27 27 27 25 24 24 23 22 21 19 18 16 14 13 11 10 9 9 8 8 9 9 10 11 11 12 13 13 13 13 13 13 14 15 15 15 15 15 15 14 14 13 11 10 9 9 8 7 7 5 4 4 3 3 5 7 8 7 5
20 22 25 24 22 21 24 28 32 34 33 31 29 28 27 27 27 27 26 26 26 26 26 25 25 26 26 27 27 27 25 24 23 23 22 20 19 17 16 14 13 11 10 9 9 8 8 8 9 9 10 11 12 12 13 13 13 13 13 14 14 15 15 15 15 15 14 13 13 12 11 10 9 9 8 7 6 4 3 3 3 4 7 8 8 6
18 19 22 21 21 21 23 25 28 31 32 31 29 27 26 26 26 25 25 25 25 25 26 26 26 26 27 27 27 27 26 24 23 22 21 20 18 17 16 14 13 12 11 10 9 8 8 8 9 9 10 10 11 12 12 13 13 14 14 14 14 15 15 16 15 15 14 14 13 12 11 11 10 9 9 8 6 5 4 2 2 4 6 8 8 7
19 19 20 21 22 22 21 21 24 28 30 30 29 28 27 26 25 24 24 24 24 25 26 26 27 27 27 27 27 27 26 25 24 23 21 20 19 17 16 15 14 12 11 10 9 9 8 8 9 9 10 10 11 11 12 13 13 14 14 15 15 15 16 16 16 15 14 14 13 13 12 11 11 10 9 8 7 6 5 3 3 4 5 6 7 7
21 21 20 21 23 23 20 19 21 25 27 28 28 28 28 27 25 23 23 24 25 25 26 27 27 28 28 27 27 27 26 25 24 23 22 21 20 18 17 16 15 13 12 11 10 9 9 9 9 9 10 10 10 11 11 12 13 14 15 15 16 16 16 16 16 16 15 14 13 13 13 12 11 11 10 9 9 8 6 5 4 5 6 6 5 5
18 20 20 21 22 22 21 21 22 24 25 25 25 25 25 26 26 24 22 22 24 25 25 26 27 28 28 28 27 26 26 25 24 22 21 20 19 19 17 16 15 14 13 11 10 10 9 9 9 10 10 10 10 10 10 11 12 13 14 15 16 16 16 16 16 16 16 15 14 13 13 12 12 12 11 10 10 9 7 6 5 7 8 7 6 5
16 17 18 19 20 20 20 21 24 25 24 23 20 18 18 23 25 25 23 23 23 24 24 25 27 28 29 29 28 27 26 25 24 23 22 21 20 19 18 17 16 14 13 12 11 10 10 10 10 10 10 9 9 9 9 10 10 11 12 14 15 15 16 16 16 16 15 15 14 13 13 13 12 12 11 11 11 10 8 6 6 8 9 8 7 5
16 16 16 18 18 19 19 20 22 22 22 21 18 16 17 21 24 23 22 23 24 25 26 26 26 28 29 29 29 28 27 26 26 25 24 23 22 21 20 19 17 16 15 14 13 12 11 11 11 10 10 9 9 9 8 8 9 10 10 12 13 14 15 16 16 16 15 14 14 13 13 13 12 12 11 11 11 10 8 6 7 9 10 8 6 6
15 15 14 14 15 17 19 21 21 19 19 20 20 20 21 23 24 22 20 20 22 25 26 25 25 26 27 28 28 29 28 28 27 26 25 24 23 23 21 20 19 18 17 16 15 14 13 12 12 11 10 9 8 8 7 7 8 8 9 10 11 12 14 15 15 15 15 14 14 13 13 13 12 12 11 11 10 9 7 8 9 11 10 8 7 7
16 15 13 12 13 15 18 20 21 21 21 21 21 21 22 23 23 22 20 19 21 23 24 24 24 25 26 27 28 29 29 29 28 27 26 26 25 24 23 22 21 20 19 17 16 15 14 13 12 11 10 9 8 7 7 7 7 7 8 9 10 11 12 13 14 14 14 14 14 13 13 12 12 11 11 11 10 9 8 10 11 12 10 8 8 9
19 17 14 13 13 15 17 20 21 21 22 22 22 21 21 22 23 23 21 20 21 22 21 19 18 19 21 26 28 29 29 29 28 28 28 27 26 25 24 23 23 22 20 18 17 15 14 13 12 11 10 8 7 6 6 6 6 7 7 8 9 10 11 12 13 13 13 13 13 13 12 12 11 11 11 10 10 9 10 12 13 12 11 10 10 11
19 17 16 15 15 16 18 20 21 21 22 23 23 23 23 24 24 23 21 22 22 22 20 19 15 11 13 19 26 30 31 30 28 28 28 28 27 26 25 25 24 23 22 20 18 16 14 13 12 11 9 8 7 6 5 5 6 6 7 8 9 10 11 11 11 12 12 12 12 12 11 11 11 11 11 10 10 10 12 14 14 13 11 10 10 10
18 18 17 16 16 17 19 20 20 21 23 23 24 24 25 26 25 24 23 23 22 21 19 20 17 13 11 14 22 30 32 31 28 26 26 27 28 28 26 25 25 24 23 21 18 16 14 13 12 11 10 8 7 6 5 5 6 6 7 8 9 10 11 11 11 11 11 11 11 11 11 11 11 10 10 10 11 12 14 15 15 14 12 11 10 10
18 20 20 19 19 20 21 21 22 22 24 24 25 24 24 24 24 24 23 23 23 23 22 20 19 18 16 16 22 30 33 32 29 25 23 24 27 29 28 26 25 25 23 21 19 17 15 14 13 11 10 8 7 6 5 5 6 6 7 8 9 10 11 11 11 11 11 11 11 11 11 11 11 11 11 11 12 13 14 15 15 14 13 12 11 11
20 21 21 22 22 21 21 23 24 25 26 26 26 25 24 24 24 23 23 23 24 24 23 22 20 19 18 18 23 30 34 32 28 24 21 22 26 29 28 27 26 26 24 22 20 18 17 15 13 12 10 9 7 6 6 6 6 7 7 8 9 10 11 11 12 12 12 12 11 11 11 11 11 11 11 12 13 14 15 16 16 15 14 13 12 12
19 20 22 23 22 21 21 24 26 27 27 28 27 26 24 24 24 23 24 24 24 23 22 20 20 19 19 19 23 29 35 33 28 23 20 20 24 28 29 28 27 26 26 24 21 19 18 16 14 13 11 9 8 7 6 6 7 7 8 8 8 9 10 12 13 13 12 12 11 11 11 11 11 11 12 13 14 15 15 16 16 15 15 13 12 12
20 21 22 23 22 21 21 23 25 27 27 28 28 27 24 24 24 24 24 24 23 22 21 20 20 20 20 21 24 29 36 36 31 24 20 17 20 26 30 29 28 27 26 25 23 20 19 17 15 13 12 10 9 8 7 7 8 8 8 8 8 9 10 12 13 13 12 12 12 12 12 12 11 11 12 13 14 15 15 16 16 16 15 14 13 13
21 22 22 22 21 20 20 21 23 25 27 28 28 28 26 27 27 26 25 25 24 23 22 22 21 20 19 20 23 28 34 37 34 28 22 16 18 25 31 30 28 27 26 26 24 22 20 18 16 14 12 11 10 9 9 9 9 9 9 9 9 9 11 13 14 14 13 12 12 12 12 12 11 11 12 13 14 15 15 16 16 16 15 15 14 13
21 21 21 21 20 20 19 19 21 24 26 27 27 27 26 27 27 27 26 26 26 25 24 23 21 18 17 19 22 27 33 37 36 30 23 17 19 25 31 31 28 25 24 25 25 23 21 19 17 15 13 12 11 10 10 10 10 10 10 10 9 9 11 13 14 13 13 13 13 12 12 12 12 11 11 12 13 14 15 16 16 16 15 15 14 14
22 21 20 20 20 20 20 20 21 22 24 26 27 26 25 25 25 25 25 25 26 25 23 21 17 15 17 19 23 27 33 37 36 31 23 17 17 23 31 32 28 24 22 25 25 23 21 19 17 16 14 13 12 11 11 11 11 11 11 10 10 10 11 13 13 13 13 13 13 13 13 12 12 12 11 12 12 14 15 16 16 16 15 15 14 14
21 21 20 19 18 19 20 20 21 21 22 24 26 27 26 25 24 23 23 24 24 24 22 18 15 14 16 19 22 26 31 36 37 33 25 19 17 20 28 32 29 24 22 24 25 23 22 20 18 17 15 15 14 13 12 12 12 12 11 11 10 10 11 13 13 13 13 14 14 14 13 13 12 12 12 12 12 13 14 15 16 16 16 15 15 14
20 19 18 18 17 18 18 20 20 20 20 22 25 27 28 27 25 24 23 24 25 25 22 16 12 11 13 15 18 23 30 35 36 34 28 22 18 19 26 30 29 24 21 22 24 24 22 21 19 18 16 16 15 15 14 13 12 12 12 11 11 11 12 13 13 13 13 14 14 14 14 13 13 13 12 12 12 12 13 14 15 15 16 16 16 15
19 18 17 17 17 18 18 19 20 20 21 22 24 27 28 29 27 24 23 25 26 25 21 17 13 10 10 11 15 21 28 33 36 35 30 24 18 17 25 30 29 25 20 21 22 23 22 21 20 18 17 17 16 16 15 14 13 13 12 12 11 11 12 13 13 13 14 14 14 14 14 14 14 13 13 13 13 13 13 13 14 16 17 17 17 17
18 17 17 18 18 18 19 20 20 21 21 22 24 27 28 29 28 27 26 27 26 24 20 19 16 13 11 13 15 19 24 30 35 37 33 25 18 17 24 29 28 25 21 19 19 19 20 21 20 19 18 17 17 17 16 16 14 13 13 12 12 12 12 13 13 13 14 14 15 15 15 15 14 14 14 13 13 13 13 13 14 16 17 17 17 17
19 18 18 19 19 19 20 21 21 22 22 23 24 26 27 28 28 28 29 29 27 24 20 19 17 15 14 13 11 11 16 25 33 37 34 25 18 17 23 27 28 26 23 18 13 10 13 18 20 20 19 18 18 18 18 17 16 15 14 13 13 13 13 13 14 14 14 14 15 15 15 15 15 14 14 14 14 13 13 13 14 15 16 16 16 17
21 20 20 20 21 21 21 22 22 23 23 23 24 25 26 27 27 28 28 29 29 26 22 19 18 17 17 13 8 4 7 22 32 37 35 26 19 19 24 26 27 27 26 21 12 4 5 12 19 21 20 19 19 20 20 19 18 17 16 15 14 14 14 14 14 14 14 15 15 15 15 15 15 15 14 14 14 14 14 14 15 15 15 15 15 16
21 21 21 21 22 22 22 22 23 23 23 24 25 26 27 27 28 28 29 30 30 28 25 22 21 21 21 17 12 9 10 22 32 37 37 27 21 21 25 26 27 27 28 26 18 9 4 7 15 21 21 21 21 21 21 21 19 18 18 17 16 15 15 15 15 15 15 15 15 15 15 15 15 15 15 15 14 14 14 14 15 15 14 14 15 15
21 21 22 22 22 22 22 23 23 23 24 25 26 27 27 28 29 29 29 29 30 29 28 25 23 23 22 21 18 15 16 23 32 38 38 30 23 21 24 25 26 27 28 27 21 14 7 8 12 18 21 22 23 22 23 22 21 19 19 18 18 17 16 15 16 16 16 16 16 15 15 15 15 15 15 15 15 14 14 14 15 15 14 14 14 14
21 22 22 22 22 22 22 22 22 23 23 25 26 27 28 29 30 30 30 29 29 29 29 28 27 25 24 20 18 17 17 22 29 36 39 34 26 23 25 25 25 26 27 25 20 14 8 9 12 14 17 22 24 23 24 23 22 21 20 19 19 18 17 17 17 17 17 17 17 16 16 16 15 15 15 15 15 14 14 14 14 14 14 14 14 14
22 22 22 23 23 23 23 23 23 23 24 25 26 28 28 29 30 30 29 29 28 28 28 28 28 27 26 22 19 18 18 21 27 33 38 37 31 26 26 25 26 26 25 23 20 14 8 11 15 16 16 19 21 23 24 24 23 22 21 20 19 19 19 19 19 19 19 19 19 18 18 17 17 16 16 15 15 15 14 13 13 13 13 13 13 13
22 23 23 24 24 24 24 24 25 25 26 26 27 28 29 29 30 30 29 28 27 27 27 26 26 26 25 25 23 23 23 23 25 30 36 38 35 30 26 26 27 28 26 24 22 18 13 14 17 18 18 16 16 19 23 25 24 22 21 20 20 20 19 20 20 20 20 20 20 20 19 19 18 17 17 16 15 14 13 13 12 11 11 11 12 12
23 23 24 25 26 26 26 25 26 27 27 28 28 28 29 29 29 29 29 28 27 26 26 25 25 24 23 23 23 24 24 24 24 27 33 37 37 33 27 26 28 29 27 25 23 21 18 15 15 16 16 15 15 16 20 24 25 23 22 22 21 21 20 20 20 21 21 21 21 21 20 20 19 18 18 17 15 14 13 12 11 10 10 10 10 11
23 23 24 25 26 26 27 26 27 28 28 28 29 29 29 29 29 29 28 27 26 26 25 25 24 23 23 22 22 21 21 21 21 23 28 34 37 34 28 27 29 30 29 28 27 25 21 16 14 13 13 15 16 18 22 25 25 24 24 23 22 22 21 21 21 21 22 22 22 22 21 21 20 19 19 18 17 16 15 14 13 12 11 10 10 10
23 23 24 25 26 27 28 27 27 28 29 29 29 29 29 29 28 28 27 27 26 25 25 24 23 23 22 22 21 20 19 19 19 20 23 28 33 34 31 29 29 30 30 29 28 27 24 20 17 15 14 14 15 18 22 25 26 26 25 24 23 23 23 22 22 22 23 23 23 23 22 21 21 20 19 19 18 18 17 17 16 15 14 13 12 11
23 24 24 25 26 27 27 27 28 29 30 30 30 29 29 28 28 27 27 26 26 25 24 24 23 22 21 21 21 20 19 18 17 18 19 23 29 33 33 31 30 30 30 29 28 27 26 23 21 21 20 19 18 19 21 23 26 27 27 24 23 24 25 24 24 24 23 23 23 23 22 21 20 19 19 18 18 18 18 18 17 17 16 16 15 14
24 23 23 24 25 26 27 28 29 30 30 30 30 29 29 28 27 26 26 25 25 24 24 23 22 21 21 20 20 20 19 18 17 17 18 20 25 30 33 32 31 30 30 30 29 28 27 24 22 22 22 22 22 22 23 25 26 27 27 25 25 26 27 26 25 25 24 24 24 23 22 21 20 19 18 17 17 16 17 17 18 18 18 17 17 16
23 23 23 24 26 27 27 29 29 30 30 30 29 28 28 28 27 26 25 24 24 23 23 22 22 21 20 20 19 19 19 18 17 17 17 18 22 27 31 31 30 30 30 30 29 28 27 25 24 24 24 23 22 20 21 25 27 27 27 27 27 27 26 27 27 26 26 25 24 24 23 22 21 19 18 16 15 15 16 16 17 18 19 19 18 18
23 23 25 26 28 29 29 29 29 29 29 29 28 28 28 28 28 27 26 24 24 23 23 22 21 21 19 19 18 19 18 18 17 17 17 18 22 26 30 31 30 29 29 29 29 28 27 25 24 24 25 24 23 22 21 23 25 26 27 28 28 24 18 24 28 29 27 26 26 25 24 23 21 20 18 16 15 15 15 17 18 18 19 20 20 19
22 23 26 28 29 30 30 29 29 29 29 28 28 28 28 28 27 27 26 25 24 24 23 22 21 20 19 18 18 19 19 18 17 17 17 19 22 26 29 30 30 29 28 28 28 28 27 25 23 23 23 23 22 22 22 24 25 26 27 29 29 27 23 25 29 31 29 28 27 26 25 24 22 20 18 17 16 15 16 17 18 19 20 20 20 20
23 25 26 28 29 29 28 28 29 29 29 29 28 28 28 27 27 26 26 25 24 24 23 22 21 19 17 17 18 19 19 19 19 19 19 20 23 25 28 29 29 28 27 27 28 28 28 26 25 23 22 21 21 21 21 23 26 27 28 29 30 29 29 26 28 31 31 30 29 27 26 24 23 21 20 18 17 16 16 17 18 19 20 20 20 21
24 25 27 28 29 29 28 29 29 28 28 28 28 28 28 28 27 26 26 25 25 24 23 23 21 18 16 17 18 19 19 19 20 20 21 22 23 24 26 26 26 25 24 24 25 26 27 27 27 25 22 21 20 20 20 22 25 27 28 29 30 30 29 25 25 28 31 31 30 29 27 25 23 22 21 20 19 18 17 18 18 18 19 19 20 20
26 27 28 28 28 28 28 28 28 28 27 27 27 28 29 28 27 27 26 25 25 24 23 22 21 19 18 19 20 20 19 19 20 21 22 22 23 24 25 24 23 22 21 21 22 22 23 24 25 25 23 22 21 20 20 20 23 26 28 30 30 30 29 27 25 25 27 29 30 29 28 26 25 24 23 21 20 19 18 18 18 18 18 19 19 19
27 27 27 28 27 26 26 27 27 27 26 26 27 28 29 29 28 27 26 25 24 24 23 22 20 19 19 20 21 21 21 21 21 21 22 23 24 24 23 22 21 19 19 19 20 20 21 21 22 23 23 22 21 21 22 21 22 24 26 29 30 31 31 30 27 24 24 26 27 28 28 27 27 26 24 22 21 20 19 19 19 19 18 18 18 18
27 27 27 27 26 25 25 26 27 27 26 26 26 28 29 29 28 27 26 25 25 24 23 22 20 19 18 20 21 21 21 21 22 22 23 24 24 24 23 22 21 20 19 19 19 19 19 19 19 20 20 21 21 22 22 22 22 22 24 27 29 31 31 31 29 25 22 22 24 26 27 27 27 26 25 23 22 21 21 20 19 19 18 18 18 18
26 26 27 26 26 25 26 26 27 26 25 25 26 27 29 28 27 27 26 26 25 24 23 22 21 20 19 20 21 22 21 21 21 22 23 24 25 25 24 23 23 22 21 20 19 18 18 17 17 18 18 18 19 20 21 22 22 22 23 25 28 29 30 30 30 27 23 21 21 23 25 26 26 25 24 23 23 22 21 21 20 19 19 18 18 17
25 26 26 26 26 26 26 26 26 26 25 25 26 27 28 27 26 25 25 25 25 24 23 23 22 21 20 21 22 22 23 23 22 22 24 25 26 26 25 25 24 23 21 18 16 15 15 13 12 14 18 19 19 19 19 21 22 23 23 24 26 28 29 30 30 28 25 21 20 21 23 25 25 25 25 24 23 22 21 21 21 20 19 18 18 17
Wind_Direction
197 199 201 203 200 196 196 198 196 193 193 195 198 199 199 197 196 196 197 198 198 198 198 199 200 203 206 207 207 207 206 206 206 207 208 211 215 219 220 220 219 217 217 220 224 223 219 211 203 195 190 185 180 176 173 174 178 185 193 189 178 172 173 178 184 189 193 197 198 197 198 204 211 219 227 230 229 222 216 214 211 203 192 177 163 152
190 191 192 194 194 191 190 193 195 196 195 196 197 197 195 192 192 194 196 198 198 197 197 198 200 203 205 206 207 208 208 207 207 207 209 213 217 219 219 218 216 214 216 220 223 222 218 211 204 198 194 191 188 183 178 174 172 174 179 182 183 181 181 184 188 192 193 196 193 191 195 205 213 218 222 220 216 210 206 203 198 189 180 168 157 147
179 180 183 186 187 187 186 188 192 196 198 197 196 195 192 190 190 192 195 196 196 197 197 198 200 203 205 205 206 207 207 206 206 207 210 213 215 217 216 215 214 214 217 221 223 221 216 211 205 200 197 195 194 192 189 185 180 177 176 178 180 183 185 188 191 193 192 189 187 187 194 203 209 213 210 206 205 205 206 206 204 195 184 170 159 148
175 176 179 181 183 185 185 185 187 191 195 195 195 193 191 190 190 192 194 193 193 194 196 198 200 202 204 204 204 205 205 204 204 205 208 210 211 212 213 212 212 214 218 222 222 220 215 211 207 203 199 197 196 196 196 194 190 186 182 180 180 181 182 185 187 188 187 186 188 191 197 202 205 203 199 198 200 206 212 216 215 205 190 174 160 147
176 176 177 178 181 184 185 183 183 185 189 190 190 190 191 192 193 193 193 192 190 191 194 198 201 203 203 202 202 201 201 201 202 203 205 206 208 209 210 210 211 214 218 219 219 217 214 211 208 205 201 199 197 197 197 197 196 193 190 186 185 184 184 184 184 185 186 188 191 194 197 199 199 198 197 198 204 211 219 226 223 209 192 175 162 150
175 176 176 176 177 180 181 179 178 179 181 183 185 188 191 194 195 193 191 190 189 189 192 196 200 202 203 202 201 199 198 198 200 201 202 204 205 206 207 208 210 213 215 216 216 214 213 211 209 206 203 201 199 199 198 198 198 198 196 193 190 188 187 186 185 186 188 189 191 193 195 195 195 195 196 199 203 211 221 229 223 206 190 175 164 155
171 172 172 172 174 175 175 174 175 176 176 177 179 184 188 192 192 190 189 188 188 189 191 195 199 201 203 202 200 197 195 196 197 199 200 201 202 203 204 206 209 212 213 214 214 214 213 211 209 206 204 202 201 200 199 199 199 199 199 197 195 192 190 189 187 187 189 190 192 193 194 194 194 195 196 197 200 205 213 223 218 200 187 176 167 159
164 166 168 170 170 170 169 170 174 177 177 174 173 175 180 184 185 185 186 187 188 189 190 193 195 198 200 199 197 195 193 193 193 194 195 197 198 200 202 205 208 211 212 213 213 214 214 212 209 206 204 203 202 201 201 201 200 201 201 200 199 197 194 192 191 191 192 193 194 195 196 196 196 196 197 197 198 200 200 206 202 187 180 174 167 160
161 162 166 168 166 163 163 168 174 178 178 174 170 169 171 174 176 178 180 183 186 190 191 191 191 192 195 195 194 193 192 192 192 192 192 193 195 197 199 202 205 208 211 212 213 215 214 212 209 206 204 203 202 202 202 203 203 203 203 203 203 202 200 198 197 196 196 197 199 199 200 200 200 200 201 201 201 201 201 201 186 169 162 165 163 159
163 162 162 166 166 164 163 167 174 177 176 172 170 170 170 169 169 170 173 178 184 189 191 191 189 187 188 190 191 190 190 192 193 194 194 195 196 197 198 200 202 205 208 209 212 213 213 210 206 204 202 202 202 203 204 205 206 206 206 207 207 206 205 204 203 202 201 201 201 202 204 204 204 205 206 207 207 209 213 217 198 170 156 158 164 169
161 160 158 160 164 166 167 170 172 173 171 167 167 169 171 171 169 167 168 174 180 184 187 189 189 186 183 184 186 187 187 187 188 190 192 194 195 196 197 198 200 202 204 205 208 209 209 206 202 199 198 198 199 201 203 205 207 208 209 210 210 209 209 208 208 207 205 204 204 204 205 206 208 209 210 211 214 219 226 230 208 178 162 161 167 177
159 158 157 158 161 164 167 168 168 167 165 162 161 164 171 174 174 172 171 173 176 179 181 185 187 186 183 181 182 185 185 184 183 183 185 187 189 190 191 193 194 196 197 199 203 205 204 201 197 194 193 193 194 195 198 201 204 206 209 211 211 211 210 209 209 208 207 207 206 206 206 209 210 211 213 215 220 226 232 229 202 178 165 160 164 179
160 158 156 158 160 162 162 160 159 159 161 162 164 169 176 179 178 177 175 176 177 178 180 181 183 184 185 184 183 183 184 183 183 183 183 183 185 187 188 189 189 190 193 195 199 201 200 196 192 189 187 186 187 189 191 194 198 202 206 209 210 210 209 209 208 207 206 206 206 207 207 210 211 213 214 218 224 229 230 214 189 173 164 159 163 177
156 156 155 158 163 166 163 160 158 160 166 172 176 178 180 179 179 177 175 176 178 180 181 180 180 182 183 184 185 185 184 183 182 182 182 183 186 188 189 189 190 192 194 196 198 199 199 194 189 185 184 182 182 183 185 189 193 198 202 205 207 207 207 206 206 205 204 203 204 205 206 208 209 211 214 219 224 227 220 197 179 170 165 162 166 173
157 157 159 164 169 171 169 166 166 169 174 178 180 180 180 178 177 176 174 173 175 178 179 178 179 181 183 183 185 186 186 183 180 179 179 182 185 189 190 190 191 194 197 198 200 201 200 194 187 182 181 179 179 180 183 187 191 196 200 202 203 203 203 203 203 202 201 200 200 202 203 205 206 208 211 217 222 219 204 185 175 171 168 168 169 169
161 162 164 169 174 177 177 174 173 173 176 178 179 178 176 176 177 178 176 172 171 172 172 172 175 181 186 188 187 187 186 184 181 179 178 179 183 187 190 190 190 192 197 200 202 203 199 192 186 182 179 178 178 180 182 186 191 195 199 200 201 200 199 199 199 199 198 197 196 197 198 199 201 203 207 213 214 205 189 179 174 173 173 174 174 173
165 167 170 173 178 182 183 181 178 176 175 176 179 181 180 179 180 180 177 173 170 170 173 175 177 183 191 192 190 188 187 184 182 180 179 179 181 185 190 191 191 192 196 200 202 202 198 190 184 181 179 178 178 180 182 186 191 195 199 200 200 199 197 196 195 194 193 191 190 190 191 192 194 197 201 203 199 190 180 176 175 175 177 179 178 174
173 175 176 178 182 185 185 183 180 177 176 176 178 182 184 184 182 181 179 175 173 174 178 183 186 189 189 194 192 189 187 183 180 179 178 179 182 185 189 192 194 195 196 198 200 200 196 189 184 181 179 180 180 181 183 187 191 196 199 201 200 198 195 192 190 187 184 181 179 180 181 182 184 187 189 189 185 179 176 175 175 177 179 180 173 157
183 184 183 185 186 186 185 184 182 179 178 178 178 179 181 182 182 182 182 181 181 181 183 187 192 194 194 195 193 190 186 183 180 177 176 179 182 185 187 191 195 197 197 197 198 197 194 190 186 183 182 182 182 184 186 189 192 196 199 201 201 198 194 190 185 180 175 172 171 171 172 173 176 178 179 178 176 174 173 174 176 179 181 180 168 150
186 188 188 187 185 183 183 186 185 184 183 183 181 178 178 180 182 183 185 187 188 189 189 191 194 197 196 193 191 190 186 183 180 177 178 181 184 185 187 191 194 195 197 197 198 197 194 190 187 185 185 185 185 186 188 190 193 196 199 201 201 198 193 187 181 175 170 168 167 168 168 169 171 174 174 174 172 172 173 175 178 180 182 180 170 154
188 190 191 189 184 182 185 190 191 190 188 185 181 178 178 180 183 186 188 189 190 191 193 195 198 199 197 192 190 190 188 184 180 177 179 182 185 187 188 191 194 196 197 198 198 197 195 192 189 188 188 187 187 188 189 191 193 195 199 201 201 198 191 184 178 172 169 168 168 169 169 170 171 172 174 173 172 172 174 176 179 181 182 181 174 162
192 194 195 192 189 188 191 193 194 194 192 187 182 179 181 182 185 187 190 189 189 191 194 198 200 200 200 197 195 193 191 189 185 181 178 179 187 191 189 192 195 197 197 198 198 197 196 194 192 190 190 189 187 188 190 191 194 196 199 202 202 197 189 181 175 172 170 170 170 170 171 172 172 173 175 175 174 174 176 178 180 182 182 182 179 171
203 202 201 200 199 199 199 199 198 197 196 194 190 189 189 189 189 189 190 190 190 192 194 196 197 198 200 200 198 196 194 193 191 187 180 179 189 193 190 191 194 197 199 199 198 197 197 195 192 191 191 188 187 188 191 193 195 197 199 202 202 195 186 178 174 172 173 173 173 173 174 174 174 174 176 176 177 177 179 180 182 183 184 184 182 178
215 214 212 211 209 208 208 207 204 202 201 201 200 199 198 197 196 195 193 193 192 192 193 193 192 191 194 196 194 193 193 193 192 190 186 186 191 193 191 191 192 195 199 200 199 197 197 195 193 192 190 187 187 189 192 194 195 197 199 201 200 193 184 176 174 174 176 176 176 176 176 176 176 175 176 177 179 180 182 183 184 185 185 186 186 184
222 222 222 222 220 218 217 216 213 210 207 205 203 201 199 197 196 196 195 193 192 191 189 186 180 177 181 184 185 188 192 193 192 191 189 187 186 188 191 191 191 193 197 200 199 198 197 196 194 192 190 186 187 190 194 195 196 197 199 200 199 193 183 176 176 177 180 180 179 179 179 179 178 177 177 178 180 182 184 185 186 187 187 188 189 189
222 223 225 227 228 227 226 225 223 221 216 211 205 199 195 193 191 190 189 189 188 185 180 175 172 174 176 177 180 185 190 192 192 192 192 186 178 182 190 192 192 193 195 197 197 197 197 197 196 193 190 187 188 191 194 196 197 197 197 198 198 192 183 178 178 181 182 182 182 182 182 182 181 179 178 177 179 182 184 186 187 188 189 191 192 192
219 221 223 227 230 231 232 231 230 227 224 217 209 201 196 191 187 183 182 184 184 181 176 177 179 177 175 176 181 186 189 190 191 193 194 189 179 178 188 191 192 191 192 194 195 196 197 198 197 196 193 191 191 191 192 196 197 197 196 198 197 192 183 179 181 183 184 184 184 184 184 184 183 181 179 178 179 181 183 185 186 188 190 192 194 194
216 217 220 224 227 230 232 232 230 228 223 216 209 203 197 192 185 181 182 185 184 181 180 184 183 176 176 182 185 187 189 190 191 194 196 194 185 181 188 189 190 189 188 188 191 195 197 199 199 198 196 196 195 193 191 193 195 196 197 198 197 192 184 182 183 185 185 185 185 185 185 185 184 182 181 179 179 180 181 182 185 189 193 195 196 196
212 213 215 218 222 226 228 228 226 223 219 213 207 203 200 196 192 189 189 188 184 181 186 190 188 182 177 178 182 186 190 192 193 194 195 193 188 186 189 186 186 186 184 180 183 191 198 201 201 200 198 198 196 193 190 190 191 193 197 198 196 192 186 185 185 185 185 185 186 186 186 186 185 183 182 181 180 180 180 182 187 192 195 197 198 199
206 207 209 212 216 219 221 220 218 216 214 210 207 204 204 203 201 199 197 192 186 184 188 191 188 178 169 166 170 182 195 198 196 195 194 190 188 186 184 182 184 185 182 173 170 184 202 205 204 201 199 198 196 193 191 189 188 190 194 195 195 192 188 187 186 185 185 186 186 187 187 186 186 185 184 183 182 181 182 187 193 196 196 197 198 200
200 201 202 205 208 210 211 211 210 208 207 206 205 205 206 206 206 204 202 198 193 190 190 189 184 176 170 168 167 180 204 204 199 195 194 191 188 185 182 179 182 186 186 179 171 167 201 208 208 205 200 198 196 195 192 190 188 189 190 192 192 191 189 188 187 186 186 187 187 187 187 187 186 186 185 185 184 183 185 193 198 199 197 196 197 198
194 194 195 197 198 200 201 203 203 202 201 201 202 204 206 207 207 206 206 204 201 197 193 189 185 182 180 184 189 195 199 203 200 197 195 192 190 187 185 181 182 185 188 187 184 175 166 191 202 204 201 198 197 196 195 192 190 189 189 190 190 189 188 187 187 187 187 188 188 189 188 188 188 187 187 187 186 185 188 197 202 203 200 198 198 198
188 188 189 190 191 192 194 197 198 198 198 198 200 202 205 206 207 208 209 209 207 203 198 193 188 186 187 192 197 201 201 203 201 199 195 192 189 186 185 183 182 184 186 188 188 185 175 172 185 194 198 198 197 196 195 193 191 190 190 191 190 189 186 186 187 188 188 188 188 189 189 189 189 189 188 188 187 187 190 198 205 207 204 203 202 202
183 183 183 184 185 187 190 193 195 196 197 198 200 201 204 205 207 208 210 211 211 209 205 201 196 192 190 193 198 202 205 206 204 200 196 193 190 186 183 182 182 183 183 185 187 187 179 171 171 178 189 196 197 196 195 193 192 191 191 192 192 189 186 186 188 189 188 188 187 188 189 189 190 189 190 189 188 188 190 198 206 210 208 207 206 205
182 182 182 183 183 185 187 190 192 194 195 197 199 201 203 205 207 208 209 210 211 211 211 211 209 206 200 196 196 200 203 208 206 201 197 195 193 189 184 183 184 184 182 184 185 182 167 168 170 171 175 186 194 197 195 194 192 192 192 193 194 192 189 188 189 190 189 188 187 187 188 188 188 188 189 189 189 189 190 195 204 210 210 208 207 206
182 182 184 184 184 184 185 187 189 191 193 195 197 200 203 205 207 208 210 210 211 211 211 214 216 217 215 210 207 206 208 210 206 201 198 198 197 192 187 187 188 187 184 184 186 184 171 163 166 170 169 173 184 194 195 194 193 192 193 194 195 195 193 192 193 192 191 190 189 188 188 188 188 188 189 189 189 188 189 192 199 206 208 204 203 203
183 184 186 186 186 185 185 186 188 189 191 193 195 199 202 204 207 208 210 211 211 211 211 213 215 218 220 221 221 220 220 217 211 204 202 202 201 197 190 190 192 191 187 184 185 184 176 162 160 166 169 172 177 185 191 191 192 193 194 195 196 197 196 195 196 196 195 192 191 190 190 190 189 189 189 189 188 187 188 190 195 201 205 203 200 200
184 185 187 188 187 187 186 186 187 189 191 192 195 198 201 204 206 208 209 211 212 212 212 213 214 216 218 221 223 227 229 225 218 211 207 205 203 200 195 193 194 194 193 190 187 182 176 167 163 168 176 181 183 183 185 186 188 192 194 195 196 197 198 198 198 199 198 196 194 193 193 193 192 191 191 190 188 186 185 188 190 193 197 201 202 201
185 186 187 188 188 187 187 186 188 189 191 193 196 199 201 203 205 207 208 210 211 212 212 213 214 216 217 219 220 223 226 226 224 219 213 210 206 203 200 197 195 196 196 195 191 187 182 178 176 176 178 181 182 183 184 185 187 189 191 193 196 198 200 200 200 200 200 199 197 196 196 196 196 195 195 195 193 190 188 189 190 190 191 194 197 200
187 188 188 188 188 188 188 188 190 191 193 194 197 199 201 202 203 204 206 208 209 210 212 213 215 216 217 218 218 219 220 221 221 221 218 215 210 207 204 202 200 197 196 195 193 191 189 187 186 185 182 179 178 179 181 184 186 187 187 188 193 198 200 200 201 202 202 202 201 199 199 198 198 199 200 201 200 198 195 194 193 193 193 192 194 196
187 187 187 187 187 187 188 190 192 193 194 195 196 198 199 200 200 201 203 204 206 207 209 211 212 214 215 216 216 216 216 215 215 215 217 217 213 210 208 207 205 202 197 195 194 194 193 191 190 188 186 182 179 179 181 184 186 186 186 187 192 195 197 199 201 202 203 204 204 203 202 201 201 202 203 205 206 206 204 202 200 199 198 197 198 198
185 184 183 183 184 185 188 191 192 194 195 195 195 196 198 199 200 199 199 199 200 202 205 206 207 207 207 209 211 212 213 213 212 212 213 215 213 211 209 209 208 205 200 196 194 194 196 195 194 191 188 184 179 177 180 185 187 187 188 191 192 192 194 198 202 204 204 205 205 206 205 205 205 205 206 208 209 209 208 208 207 206 204 202 203 204
184 183 182 182 183 185 187 189 191 192 194 194 195 196 198 200 200 200 199 198 197 199 201 203 203 202 200 199 201 204 207 208 209 210 210 211 212 211 210 210 210 208 204 197 192 192 195 197 198 198 196 192 186 180 178 183 186 189 191 193 191 187 189 197 201 203 205 206 207 207 208 208 209 209 209 210 211 210 209 209 210 210 209 208 207 207
181 179 180 181 183 185 186 187 189 191 192 192 193 195 198 200 201 200 199 197 197 197 197 198 199 199 195 193 194 197 200 202 204 205 206 207 209 210 210 211 212 212 208 200 193 191 191 194 198 200 200 198 194 188 185 185 186 189 192 195 194 191 191 194 198 201 204 206 208 209 210 210 211 212 212 213 213 211 210 209 209 210 210 210 210 211
178 177 178 179 181 182 183 185 188 189 190 192 193 194 196 198 199 200 199 196 195 194 194 194 192 187 182 184 188 192 195 196 198 199 201 202 204 206 208 210 212 212 211 208 203 197 193 192 194 197 199 199 198 195 192 190 189 191 194 196 198 199 200 198 198 199 202 205 207 209 210 211 212 213 214 215 214 213 210 209 209 209 210 210 211 212
176 175 176 178 179 180 182 184 186 187 188 190 192 194 195 196 198 198 199 197 193 191 192 193 189 182 176 178 182 184 187 191 194 196 197 199 200 202 205 208 211 212 212 212 211 210 205 201 198 196 194 194 196 200 202 199 195 193 195 197 199 201 203 203 203 203 204 205 206 208 208 210 211 213 215 216 215 213 211 210 209 209 210 210 211 213
177 176 176 177 178 179 181 183 183 183 184 186 189 192 193 194 195 196 197 197 194 190 189 190 188 185 182 181 180 179 179 182 186 191 193 194 195 197 200 203 206 210 211 211 212 213 214 213 209 203 196 190 190 195 202 206 203 198 197 198 199 201 203 205 206 207 207 208 208 208 207 208 210 213 215 216 216 214 213 211 210 210 210 211 212 213
179 178 177 177 177 177 178 179 180 181 182 184 187 189 191 193 193 192 192 193 192 189 186 184 184 184 184 184 184 183 182 180 181 184 187 189 190 192 193 196 198 200 203 205 207 209 211 214 215 214 209 202 196 194 199 204 207 206 203 201 201 201 204 205 207 208 209 211 211 210 209 208 209 211 213 214 215 215 214 211 210 210 210 211 212 213
181 179 178 177 176 176 177 178 180 180 181 182 184 186 188 190 192 191 190 190 189 187 184 183 182 181 181 182 184 185 184 182 181 182 183 185 186 186 188 189 190 191 192 195 198 202 206 209 214 217 220 218 212 206 204 205 208 210 209 206 204 204 205 206 206 207 209 212 212 212 212 212 212 212 212 212 214 215 214 212 211 211 211 212 212 212
182 181 179 178 177 177 178 179 180 180 181 181 182 183 184 186 188 190 191 190 188 186 186 185 184 181 179 180 181 181 181 179 178 178 180 183 183 183 184 184 184 184 183 186 189 193 197 201 206 212 218 222 222 218 213 209 208 209 209 208 208 207 206 206 206 207 209 211 212 212 212 213 214 214 214 214 215 216 216 214 213 212 212 212 212 212
181 181 181 180 179 179 180 180 180 180 180 181 181 182 182 182 184 187 188 188 187 187 188 188 187 184 181 180 181 181 180 179 176 175 177 181 182 181 181 181 180 176 173 171 174 178 181 186 196 207 212 214 218 221 220 214 208 204 203 206 209 209 207 207 206 206 208 210 210 208 208 209 211 212 213 214 214 215 217 217 216 214 213 213 212 211